EW2804 Weather Reports


time (UTC)temp
C
wind
direction
speed
KPH
gust
KPH
rain 1hr
cm
rain 24hr
cm
rain mn
cm
humidity
%
barometer
mb
20260905095519 25 128 0.0 0.0 0.00 0.00 0.00 78 1011.5
20260905094537 25 128 0.0 0.0 0.00 0.00 0.00 78 1011.3
20260905092412 25 128 0.0 0.0 0.00 0.00 0.00 76 1011.1
20260905091407 25 128 0.0 0.0 0.00 0.00 0.00 76 1011.1
20260905090428 25 128 0.0 0.0 0.00 0.00 0.00 75 1011.0
20260905084340 26 128 0.0 0.0 0.00 0.00 0.00 74 1010.9
20260905083342 26 128 0.0 0.0 0.00 0.00 0.00 73 1010.9
20260905082338 26 128 0.0 0.0 0.00 0.00 0.00 72 1010.9
20260905081332 26 128 0.0 0.0 0.00 0.00 0.00 72 1011.0
20260905080333 26 128 0.0 0.0 0.00 0.00 0.00 71 1010.9
20260905074151 26 128 0.0 0.0 0.00 0.00 0.00 71 1010.9
20260905073157 27 128 0.0 0.0 0.00 0.00 0.00 71 1011.0
20260905072208 27 128 0.0 0.0 0.00 0.00 0.00 68 1011.1
20260905071230 27 128 0.0 0.0 0.00 0.00 0.00 68 1011.2
20260905070211 27 128 0.0 0.0 0.00 0.00 0.00 67 1011.2
20260905065228 27 128 0.0 0.0 0.00 0.00 0.00 66 1011.2
20260905064235 28 128 0.0 0.0 0.00 0.00 0.00 65 1011.2
20260905063218 28 128 0.0 0.0 0.00 0.00 0.00 64 1011.2
20260905062216 29 128 0.0 0.0 0.00 0.00 0.00 63 1011.3
20260905061153 29 128 0.0 0.0 0.00 0.00 0.00 61 1011.3
20260905060150 30 128 0.0 0.0 0.00 0.00 0.00 60 1011.2
20260905055210 30 128 0.0 1.6 0.00 0.00 0.00 59 1011.1
20260905054139 30 128 0.0 4.8 0.00 0.00 0.00 59 1011.0
20260905053106 30 128 0.0 3.2 0.00 0.00 0.00 58 1011.0
20260905052112 30 174 0.0 1.6 0.00 0.00 0.00 58 1010.9
20260905051127 30 141 0.0 3.2 0.00 0.00 0.00 57 1010.8
20260905050146 31 134 0.0 11.3 0.00 0.00 0.00 56 1010.7
20260905045112 31 138 0.0 11.3 0.00 0.00 0.00 56 1010.8
20260905044057 31 159 0.0 4.8 0.00 0.00 0.00 55 1010.7
20260905043048 31 175 0.0 0.0 0.00 0.00 0.00 54 1010.8
20260905042025 31 169 1.6 6.4 0.00 0.00 0.00 52 1010.7
20260905041043 31 123 1.6 9.7 0.00 0.00 0.00 51 1010.8
20260905040028 31 130 0.0 9.7 0.00 0.00 0.00 50 1010.9
20260905035020 31 126 0.0 4.8 0.00 0.00 0.00 49 1010.8
20260905034024 31 140 0.0 6.4 0.00 0.00 0.00 49 1010.8
20260905031800 32 156 0.0 4.8 0.00 0.00 0.00 49 1010.6
20260905030810 32 157 0.0 3.2 0.00 0.00 0.00 49 1010.5
20260905025813 32 156 0.0 0.0 0.00 0.00 0.00 48 1010.5
20260905024822 32 157 0.0 3.2 0.00 0.00 0.00 48 1010.4
20260905023839 32 150 0.0 4.8 0.00 0.00 0.00 48 1010.2
20260905022802 32 175 0.0 4.8 0.00 0.00 0.00 47 1010.1
20260905021811 33 158 0.0 8.0 0.00 0.00 0.00 47 1010.0
20260905020736 33 143 0.0 8.0 0.00 0.00 0.00 47 1009.8
20260905014627 33 175 0.0 8.0 0.00 0.00 0.00 47 1009.5
20260905012456 33 235 1.6 6.4 0.00 0.00 0.00 46 1009.2
20260905011434 33 147 1.6 8.0 0.00 0.00 0.00 46 1009.1
20260905010429 34 145 1.6 8.0 0.00 0.00 0.00 46 1009.1
20260905004305 35 127 1.6 8.0 0.00 0.00 0.00 43 1008.8
20260905003326 35 109 1.6 8.0 0.00 0.00 0.00 42 1008.7
20260905002325 35 112 1.6 9.7 0.00 0.00 0.00 41 1008.6
20260905001342 36 158 0.0 9.7 0.00 0.00 0.00 40 1008.5
20260904235123 36 232 1.6 8.0 0.00 0.00 0.00 39 1008.4
20260904234131 36 186 1.6 9.7 0.00 0.00 0.00 37 1008.5
20260904232020 37 152 1.6 12.9 0.00 0.00 0.00 37 1008.5
20260904231023 37 134 1.6 12.9 0.00 0.00 0.00 38 1008.5
20260904230002 36 115 1.6 8.0 0.00 0.00 0.00 37 1008.5
20260904224935 36 134 1.6 12.9 0.00 0.00 0.00 38 1008.6
20260904223924 36 156 3.2 12.9 0.00 0.00 0.00 38 1008.7
20260904222849 36 155 1.6 9.7 0.00 0.00 0.00 40 1008.7
20260904221907 36 134 1.6 6.4 0.00 0.00 0.00 40 1008.8
20260904220923 36 116 4.8 16.1 0.00 0.00 0.00 40 1008.8
20260904215918 36 112 3.2 16.1 0.00 0.00 0.00 40 1008.9
20260904214854 36 214 4.8 14.5 0.00 0.00 0.00 39 1009.0
20260904213847 37 175 4.8 14.5 0.00 0.00 0.00 38 1009.0
20260904211756 37 110 3.2 17.7 0.00 0.00 0.00 38 1009.3
20260904210744 37 204 3.2 17.7 0.00 0.00 0.00 38 1009.3
20260904205709 37 152 3.2 12.9 0.00 0.00 0.00 38 1009.5
20260904204642 37 257 4.8 12.9 0.00 0.00 0.00 39 1009.6
20260904203643 37 171 3.2 12.9 0.00 0.00 0.00 40 1009.7
20260904200358 36 242 3.2 17.7 0.00 0.00 0.00 42 1010.1
20260904195352 36 176 4.8 17.7 0.00 0.00 0.00 43 1010.2
20260904194356 36 216 3.2 14.5 0.00 0.00 0.00 43 1010.3
20260904193352 36 128 3.2 11.3 0.00 0.00 0.00 44 1010.5
20260904192341 36 229 3.2 12.9 0.00 0.00 0.00 45 1010.6
20260904191340 36 259 4.8 12.9 0.00 0.00 0.00 46 1010.7
20260904190402 36 238 4.8 14.5 0.00 0.00 0.00 45 1010.9
20260904185400 35 163 3.2 14.5 0.00 0.00 0.00 46 1011.0
20260904184345 35 184 4.8 12.9 0.00 0.00 0.00 47 1011.2
20260904182217 35 107 4.8 14.5 0.00 0.00 0.00 47 1011.5
20260904181223 35 92 3.2 14.5 0.00 0.00 0.00 48 1011.5
20260904180153 35 100 3.2 14.5 0.00 0.00 0.00 48 1011.7
20260904175119 34 238 3.2 12.9 0.00 0.00 0.00 49 1011.8
20260904174127 33 161 3.2 11.3 0.00 0.00 0.00 48 1011.9
20260904172026 34 240 3.2 9.7 0.00 0.00 0.00 47 1012.2
20260904171047 33 243 3.2 14.5 0.00 0.00 0.00 49 1012.3
20260904164943 33 173 4.8 14.5 0.00 0.00 0.00 52 1012.5
20260904163920 32 290 4.8 12.9 0.00 0.00 0.00 56 1012.5
20260904161747 32 186 3.2 12.9 0.00 0.00 0.00 56 1012.7
20260904160735 31 140 1.6 12.9 0.00 0.00 0.00 62 1012.7
20260904155754 31 202 3.2 12.9 0.00 0.00 0.00 62 1012.6
20260904154751 30 211 3.2 11.3 0.00 0.00 0.00 64 1012.6
20260904153742 30 223 1.6 11.3 0.00 0.00 0.00 67 1012.6
20260904152804 29 86 1.6 8.0 0.00 0.00 0.00 70 1012.6
20260904151807 28 115 1.6 9.7 0.00 0.00 0.00 73 1012.6
20260904145620 28 161 3.2 11.3 0.00 0.00 0.00 73 1012.6
20260904143458 28 141 1.6 12.9 0.00 0.00 0.00 75 1012.4
20260904142456 27 245 1.6 9.7 0.00 0.00 0.00 77 1012.4
20260904141428 27 132 0.0 4.8 0.00 0.00 0.00 78 1012.4
20260904140440 27 182 0.0 9.7 0.00 0.00 0.00 79 1012.3
20260904135401 27 173 1.6 9.7 0.00 0.00 0.00 79 1012.4
20260904134342 27 184 0.0 12.9 0.00 0.00 0.00 79 1012.3
20260904133316 26 160 1.6 12.9 0.00 0.00 0.00 79 1012.2
20260904131212 26 111 0.0 3.2 0.00 0.00 0.00 80 1012.0
20260904130139 26 94 0.0 0.0 0.00 0.00 0.00 80 1011.8
20260904125150 26 116 0.0 8.0 0.00 0.00 0.00 81 1011.7
20260904124135 26 134 0.0 4.8 0.00 0.00 0.00 81 1011.6
20260904123154 26 138 0.0 0.0 0.00 0.00 0.00 81 1011.6
20260904122129 26 138 0.0 1.6 0.00 0.00 0.00 81 1011.4
20260904114907 26 139 0.0 0.0 0.00 0.00 0.00 80 1011.3
20260904113836 26 138 0.0 3.2 0.00 0.00 0.00 80 1011.2
20260904112806 26 138 0.0 3.2 0.00 0.00 0.00 80 1011.2
20260904111818 26 139 0.0 0.0 0.00 0.00 0.00 80 1011.2
20260904110816 26 139 0.0 0.0 0.00 0.00 0.00 80 1011.2
20260904105825 26 139 0.0 0.0 0.00 0.00 0.00 80 1011.2
20260904103718 26 139 0.0 0.0 0.00 0.00 0.00 79 1011.1
20260904102722 26 119 0.0 0.0 0.00 0.00 0.00 79 1011.0
20260904101709 26 119 0.0 3.2 0.00 0.00 0.00 79 1011.0
20260904100652 26 132 0.0 1.6 0.00 0.00 0.00 79 1010.9